Tracking 30995 objects as of 5-Jul-2025
HD Live streaming from Space Station
objects crossing your sky now

STARLINK-30101

Track STARLINK-30101 now!
10-day predictions
STARLINK-30101 is classified as:


NORAD ID: 56301
Int'l Code: 2023-056R
Perigee: 565.6 km
Apogee: 566.8 km
Inclination: 43.0 °
Period: 95.8 minutes
Semi major axis: 6937 km
RCS: Unknown
Launch date: April 19, 2023
Source: United States (US)
Launch site: AIR FORCE EASTERN TEST RANGE (AFETR)
Your satellite tracking list
Your tracking list is empty




NASA's NSSDC Master Catalog

Two Line Element Set (TLE):
1 56301U 23056R   25186.19086939  .00001054  00000-0  93061-4 0  9991
2 56301  43.0031 115.1096 0000877 266.6109  93.4633 15.02541849122858
Source of the keplerian elements: AFSPC